#timestamp,LO_Frequency,Hit,StdDev 
1561744815.6,286047005.4,Y
1561744835.5,286047001.7,P
1561744855.3,286047002.0,P
1561744875.1,286047002.1,P
1561744895.9,286047002.3,Y
1561744915.7,286047000.4,P
1561744935.5,286047003.6,P
1561744955.3,286047007.6,P
1561744975.2,286047006.3,N
1561744995.0,286047007.2,N
1561744995.9,286047007.2,N
1561745015.7,286047006.8,N
1561745035.6,286047009.1,Y
1561745055.4,286047002.2,P
1561745075.2,286047002.2,N
1561745095.1,286047001.7,N
1561745096.0,286047001.7,N
1561745115.8,286047005.5,Y
1561745135.6,286047003.4,P
1561745155.5,286047003.5,P
1561745175.3,286047003.6,P
1561745195.1,286047006.0,Y
1561745215.9,286047002.2,P
1561745235.7,286047007.5,P
1561745255.5,286047004.5,N
1561745275.4,286047006.1,Y
1561745295.2,286047002.1,P
1561745315.0,286047002.6,N
1561745315.9,286047002.6,N
1561745335.8,286047001.1,N
1561745355.6,286047000.9,N
1561745375.4,286047002.8,N
1561745395.3,286046999.9,N
1561745415.1,286047000.2,N
1561745416.0,286047000.2,N
1561745435.8,286047000.0,N
1561745455.7,286046999.9,N
1561745475.5,286047000.3,N
1561745495.3,286047000.0,N
1561745515.1,286047000.2,N
1561745535.9,286047000.1,N
1561745555.7,286047004.2,Y
1561745575.5,286047001.9,P
1561745595.4,286047003.1,P
1561745615.2,286047002.9,P
1561745635.0,286047005.0,Y
1561745635.9,286047005.0,P
1561745655.8,286047007.2,P
1561745675.6,286047008.9,P
1561745695.4,286047006.7,N
1561745715.3,286047009.1,Y
1561745735.1,286047002.5,P
1561745755.8,286047004.4,N
1561745775.7,286047001.7,N
1561745795.5,286047003.0,N
1561745815.3,286047003.9,N
1561745835.2,286047001.4,N
1561745855.9,286047001.5,N
1561745875.7,286047002.8,N
1561745895.6,286047002.4,N
1561745915.4,286047001.5,N
1561745935.2,286047004.1,N
1561745955.1,286047005.9,Y
1561745956.0,286047005.9,P
1561745975.8,286047001.7,N
1561745995.6,286046999.9,N
1561746015.4,286047002.1,N
1561746035.3,286047002.2,N
1561746055.1,286047002.2,N
1561746075.8,286047001.5,N
1561746095.7,286047004.3,N
1561746115.5,286047005.5,Y
1561746135.3,286047002.2,P
1561746155.2,286047004.4,P
1561746175.9,286047004.5,P
1561746195.7,286047010.7,Y
1561746215.6,286047009.2,P
1561746235.4,286047008.2,N
1561746255.2,286047010.3,P
1561746275.1,286047008.3,Y
1561746276.0,286047008.3,P
1561746295.8,286047000.7,N
1561746315.6,286047000.3,N
1561746335.5,286047000.6,N
1561746355.3,286046999.9,N
1561746375.1,286046999.8,N
1561746395.9,286047002.4,N
1561746415.7,286047000.2,N
1561746435.5,286047002.4,N
1561746455.4,286047002.4,N
1561746475.2,286047001.9,N
1561746495.0,286047001.8,N
1561746495.9,286047001.8,N
1561746515.7,286047003.0,N
1561746535.6,286047005.6,N
1561746555.4,286047005.8,N
1561746575.2,286047006.0,N
1561746595.1,286047006.5,N
1561746596.0,286047006.5,N
1561746615.8,286047009.1,Y
1561746635.6,286047005.6,P
1561746655.5,286047004.9,P
1561746675.3,286047004.8,P
1561746695.1,286047007.6,Y
1561746715.9,286047004.4,P
1561746735.7,286047004.4,P
1561746755.5,286047004.3,P
1561746775.4,286047004.1,Y
1561746795.2,286046998.8,P
1561746815.0,286046998.8,N
1561746815.9,286046998.8,N
1561746835.8,286046999.6,N
1561746855.6,286046999.6,N
1561746875.4,286046997.2,N
1561746895.3,286046999.6,N
1561746915.1,286046999.4,N
1561746916.0,286046999.4,N
1561746935.8,286046999.5,N
1561746955.6,286046996.5,N
1561746975.5,286046998.9,N
1561746995.3,286046998.7,N
1561747015.1,286046998.7,N
1561747035.9,286046998.3,N
1561747055.7,286046999.4,N
1561747075.5,286046998.3,N
1561747095.4,286046998.5,N
1561747115.2,286047000.6,N
1561747135.0,286047000.5,N
1561747135.9,286047000.5,N
1561747155.8,286046999.8,N
1561747175.6,286047002.8,N
1561747195.4,286046999.7,N
1561747215.2,286047001.8,N
1561747235.1,286047001.8,N
1561747236.0,286047001.8,N
1561747255.8,286047001.9,N
1561747275.6,286047001.3,N
1561747295.5,286047003.9,N
1561747315.3,286047005.6,Y
1561747335.1,286047003.4,P
1561747355.9,286047004.7,N
1561747375.7,286047007.6,P
1561747395.5,286047006.8,N
1561747415.4,286047006.7,N
1561747435.2,286047006.3,N
1561747455.0,286047008.2,Y
1561747455.9,286047008.2,P
1561747475.8,286047003.4,N
1561747495.6,286047003.2,N
1561747515.4,286047005.1,N
1561747535.3,286047007.3,Y
1561747555.1,286047001.5,P
1561747556.0,286047001.5,N
1561747575.8,286047002.6,N
1561747595.7,286047001.9,N
1561747615.5,286047001.7,N
1561747635.3,286047001.7,N
1561747655.1,286047001.4,N
1561747675.9,286047001.7,N
1561747695.7,286047001.6,N
1561747715.5,286047004.4,Y
1561747735.4,286047002.8,P
1561747755.2,286047002.7,P
1561747775.0,286046999.9,N
1561747775.9,286046999.9,N
1561747795.8,286046999.8,N
1561747815.6,286047002.7,N
1561747835.4,286047001.9,N
1561747855.3,286047004.0,Y
1561747875.1,286047000.0,P
1561747895.8,286047002.7,P
1561747915.7,286046999.7,N
1561747935.5,286047002.5,N
1561747955.3,286047003.8,Y
1561747975.2,286047004.3,P
1561747995.9,286047001.3,N
1561748015.7,286047004.0,N
1561748035.6,286047004.0,N
1561748055.4,286047004.2,Y
1561748075.2,286046999.7,P
1561748095.1,286047001.9,N
1561748096.0,286047001.9,N
1561748115.8,286047003.8,Y
1561748135.6,286047002.2,P
1561748155.5,286047001.9,P
1561748175.3,286047001.5,P
1561748195.1,286047001.7,Y
1561748215.9,286047001.9,P
1561748235.7,286047001.6,P
1561748255.5,286047001.3,P
1561748275.4,286047003.4,Y
1561748295.2,286047006.8,P
1561748315.0,286047008.4,P
1561748315.9,286047008.4,N
1561748335.8,286047008.3,N
1561748355.6,286047008.9,Y
1561748375.4,286047002.8,P
1561748395.3,286047001.5,N
